Regional Weather Roundup
Issued by NWS

Home | Current Version | Previous Version | Text Only | Print | Product List | Glossary Off
Versions: 1 2 3 4 5 6 7 8 9 10 11 12 13 14 15 16 17 18 19 20 21 22 23 24 25 26 27 28 29 30 31 32 33 34 35 36 37 38 39 40 41 42 43 44 45 46 47 48 49 50

381
ASUS44 KLIX 011210
RWRLA
LOUISIANA WEATHER ROUNDUP
NATIONAL WEATHER SERVICE NEW ORLEANS LA
600 AM CST SUN FEB 01 2015

NOTE: "FAIR" INDICATES FEW OR NO CLOUDS BELOW 12,000 FEET WITH NO
      SIGNIFICANT WEATHER AND/OR OBSTRUCTIONS TO VISIBILITY.
      SKY/WX - SKY CONDITION AND SIGNIFICANT WEATHER.
      TMP - AIR TEMPERATURE.    DP   - DEWPOINT TEMPERATURE.
      RH  - RELATIVE HUMIDITY.  PRES - PRESSURE.
      HX  - HEAT INDEX.         WCI  - WIND CHILL INDEX.

*  THESE STATIONS ARE NOT NWS OR FAA STATIONS AND ARE NOT UNDER
   NWS QUALITY CONTROL.

LAZ040-048-061>063-065-066-069-011300-
SOUTHEAST LOUISIANA

CITY           SKY/WX    TMP DP  RH WIND       PRES   REMARKS
N.O. AUDUBON     N/A     61  58  89 MISG        N/A
6HR MIN TEMP:  58; 6HR MAX TEMP:  62; 6HR PCP:  0.01;

N.O. INTL ARPT LGT RAIN  61  56  83 S6        30.04R
6HR MIN TEMP:  58; 6HR MAX TEMP:  62; 6HR PCP:  0.01;

N.O. LAKEFRONT LGT RAIN  63  56  78 S5        30.04R
6HR MIN TEMP:  60; 6HR MAX TEMP:  63; 6HR PCP: TRACE;

N.O. DOWNTOWN* NOT AVBL
SLIDELL        LGT RAIN  61  56  83 SE5       30.03S
6HR MIN TEMP:  53; 6HR MAX TEMP:  63; 6HR PCP: TRACE;

BATON ROUGE    CLOUDY    58  54  86 E3        29.99R
6HR MIN TEMP:  54; 6HR MAX TEMP:  58; 6HR PCP: TRACE;

BOOTHVILLE     PTCLDY    59  56  89 SE7       30.03S
6HR MIN TEMP:  58; 6HR MAX TEMP:  60;

BELLE CHASSE   LGT RAIN  62  55  77 SE5       30.02R
6HR MIN TEMP:  59; 6HR MAX TEMP:  63; 6HR PCP: TRACE;

BOGALUSA*      LGT RAIN  56  52  86 CALM      30.06R
6HR MIN TEMP:  52; 6HR MAX TEMP:  58;

GALLIANO*      HVY RAIN  63  61  92 W6        30.03R
6HR MIN TEMP:  63; 6HR MAX TEMP:  66; 6HR PCP:  0.10;

NEW ROADS*     CLOUDY    57  54  88 SE7       29.98F
6HR MIN TEMP:  54; 6HR MAX TEMP:  58;

GONZALES*      FAIR      59  59 100 SE8       29.98S
6HR MIN TEMP:  55; 6HR MAX TEMP:  60; 6HR PCP:  0.02;

HAMMOND*       CLOUDY    57  54  88 SE7       30.02F
HOUMA*         NOT AVBL
PORT FOURCHON*   N/A     66  61  82 W6G15     30.05R

$$

LAZ041-044-053-054-011300-
SOUTHWEST LOUISIANA

CITY           SKY/WX    TMP DP  RH WIND       PRES   REMARKS
LAKE CHARLES   MOCLDY    54  53  97 CALM      29.96R FOG
6HR MIN TEMP:  54; 6HR MAX TEMP:  58;

LAFAYETTE      MOCLDY    58  57  97 CALM      29.97S
6HR MIN TEMP:  57; 6HR MAX TEMP:  59; 6HR PCP:  0.01;

PATTERSON      CLOUDY    61  57  88 SE8       29.98S
6HR MIN TEMP:  59; 6HR MAX TEMP:  61;

SALT POINT       N/A     61  60  97 SE8       29.97R
6HR MIN TEMP:  59; 6HR MAX TEMP:  61;

NEW IBERIA     CLOUDY    61  59  93 SE9       29.97F
6HR MIN TEMP:  57; 6HR MAX TEMP:  62; 6HR PCP:  0.02;

CHENAULT AIRPK CLOUDY    55  55 100 CALM      29.97  FOG

$$

LAZ027-028-011300-
CENTRAL LOUISIANA

CITY           SKY/WX    TMP DP  RH WIND       PRES   REMARKS
FORT POLK      CLOUDY    56  55  94 SE7       29.95S
6HR MIN TEMP:  54; 6HR MAX TEMP:  56; 6HR PCP: TRACE;

ALEXANDRIA INT CLOUDY    55  52  89 SE5       29.95F
6HR MIN TEMP:  54; 6HR MAX TEMP:  55; 6HR PCP:  0.02;

ALEXANDRIA     CLOUDY    56  52  86 SE3       29.96F
6HR MIN TEMP:  54; 6HR MAX TEMP:  56; 6HR PCP:  0.01;


$$

LAZ001-002-011300-
NORTHWEST LOUISIANA

CITY           SKY/WX    TMP DP  RH WIND       PRES   REMARKS
SHREVEPORT     CLOUDY    56  54  93 S9        29.89F
6HR MIN TEMP:  55; 6HR MAX TEMP:  57; 6HR PCP:  0.02;

BARKSDALE AFB  CLOUDY    54  54 100 S10       29.89F
6HR MIN TEMP:  54; 6HR MAX TEMP:  56; 6HR PCP:  0.02;

DTN SHREVEPORT CLOUDY    55  52  89 S9        29.89F
6HR MIN TEMP:  54; 6HR MAX TEMP:  55; 6HR PCP:  0.02;


$$

LAZ014-016-011300-
NORTHEAST LOUISIANA

CITY           SKY/WX    TMP DP  RH WIND       PRES   REMARKS
MONROE         CLOUDY    53  50  89 S8        29.95F
6HR MIN TEMP:  51; 6HR MAX TEMP:  54; 6HR PCP:  0.10;

TALLULAH       LGT RAIN  53  50  89 S8        29.99R
6HR MIN TEMP:  51; 6HR MAX TEMP:  53; 6HR PCP:  0.08;


$$




USA.gov is the U.S. government's official web portal to all federal, state and local government web resources and services.